FW1597 Roberta CA current weather conditions

sailwx.info

Wind from 225

Air temperature 10.6° C
Dewpoint 10.1° C

Last reported at 2020-Jul-06 04:56 UTC.
Time now 2020-Jul-06 05:34 UTC

Location: N 45°45' W 060°53'.
View on Google Maps.

See reports from other nearby stations

  
Tides and Currents Weather Stations Pressure Air Temp Water Temp Dewpoint Dewpoint Depression Visibility Wind Speed Wind Dir Waves Ship Positions
date/time (UTC)wind fromknots sea level pressurealtimeterstation pressurevisibilityair tempwater tempwave heightnotes
2020-Jul-06 04:56 225 10.6
2020-Jul-06 04:50 225 10.6
2020-Jul-06 04:46 225 10.6
2020-Jul-06 04:40 105 10.6
2020-Jul-06 04:35 105 10.6
2020-Jul-06 04:33 140 10.6
2020-Jul-06 04:25 140 10.6
2020-Jul-06 04:20 140 10.6
2020-Jul-06 04:16 140 10.6
2020-Jul-06 04:11 140 10.6
2020-Jul-06 04:06 140 10.6
2020-Jul-06 04:01 140 10.6
2020-Jul-06 03:55 140 10.6
2020-Jul-06 03:51 140 10.6
2020-Jul-06 03:46 140 10.6
2020-Jul-06 03:40 140 10.6
2020-Jul-06 03:35 169 11.1
2020-Jul-06 03:31 169 11.1
2020-Jul-06 03:25 203 11.1
2020-Jul-06 03:20 203 0 gusting 4 11.1
2020-Jul-06 03:16 202 11.1
2020-Jul-06 03:10 171 0 gusting 5 11.1
2020-Jul-06 03:05 156 0 gusting 5 11.1
2020-Jul-06 03:01 118 1 gusting 3 11.1
2020-Jul-06 02:55 142 0 gusting 5 11.1
2020-Jul-06 02:50 173 0 gusting 2 11.1
2020-Jul-06 02:45 173 11.1
2020-Jul-06 02:40 173 11.1
2020-Jul-06 02:35 195 11.1
2020-Jul-06 02:31 195 11.1
2020-Jul-06 02:25 164 1 gusting 6 11.1
2020-Jul-06 02:20 159 2 gusting 6 11.1
2020-Jul-06 02:16 138 1 gusting 5 11.1
2020-Jul-06 02:10 164 0 gusting 6 11.1
2020-Jul-06 02:01 153 1 gusting 6 11.1
2020-Jul-06 01:55 163 1 gusting 5 11.1
2020-Jul-06 01:50 145 0 gusting 4 11.1
2020-Jul-06 01:46 172 11.1
2020-Jul-06 01:40 184 0 gusting 3 11.1
2020-Jul-06 01:35 155 0 gusting 3 11.1
2020-Jul-06 01:30 159 0 gusting 4 11.1
2020-Jul-06 01:25 162 0 gusting 3 11.1
2020-Jul-06 01:20 141 0 gusting 4 11.1
2020-Jul-06 01:15 212 11.1
2020-Jul-06 01:10 182 1 gusting 6 11.1
2020-Jul-06 01:05 150 11.1
2020-Jul-06 01:00 150 11.7
2020-Jul-06 00:55 152 11.7
2020-Jul-06 00:50 152 11.7
2020-Jul-06 00:45 170 11.7
2020-Jul-06 00:40 170 0 gusting 2 11.7
2020-Jul-06 00:35 200 0 gusting 2 11.7
2020-Jul-06 00:30 200 0 gusting 2 11.7
2020-Jul-06 00:25 175 11.7
2020-Jul-06 00:20 186 11.7
2020-Jul-06 00:16 189 11.7
2020-Jul-06 00:10 190 1 gusting 4 11.7
2020-Jul-06 00:05 176 11.7
2020-Jul-06 00:01 250 11.7
2020-Jul-05 23:55 187 0 gusting 5 11.7
2020-Jul-05 23:50 170 11.7
2020-Jul-05 23:45 295 12.2
2020-Jul-05 23:40 152 0 gusting 5 12.2
2020-Jul-05 23:35 217 12.2
2020-Jul-05 23:30 164 1 gusting 6 12.2
2020-Jul-05 23:25 173 1 gusting 5 12.2
2020-Jul-05 23:20 169 0 gusting 5 12.2
2020-Jul-05 23:15 172 1 gusting 4 12.2
2020-Jul-05 23:10 155 0 gusting 6 12.2
2020-Jul-05 23:05 196 1 gusting 6 12.2
2020-Jul-05 23:00 192 1 gusting 6 12.2
2020-Jul-05 22:55 158 1 gusting 7 12.8
2020-Jul-05 22:50 138 2 gusting 6 12.8
2020-Jul-05 22:45 194 0 gusting 4 12.8
2020-Jul-05 22:40 161 0 gusting 4 12.8
2020-Jul-05 22:35 188 0 gusting 6 12.8
2020-Jul-05 22:30 178 2 gusting 6 12.8
2020-Jul-05 22:25 169 2 gusting 6 12.8
2020-Jul-05 22:20 166 2 gusting 6 12.8
2020-Jul-05 22:15 246 1 gusting 6 13.3
2020-Jul-05 22:10 233 1 gusting 6 13.3
2020-Jul-05 22:05 172 0 gusting 6 13.3
2020-Jul-05 22:01 163 1 gusting 9 13.3
2020-Jul-05 21:55 173 3 gusting 13 13.9
2020-Jul-05 21:50 184 2 gusting 8 13.9
2020-Jul-05 21:45 242 2 gusting 8 13.9
2020-Jul-05 21:40 158 2 gusting 9 13.9
2020-Jul-05 21:35 194 2 gusting 6 13.9
2020-Jul-05 21:30 252 1 gusting 7 13.9
2020-Jul-05 21:25 192 2 gusting 9 13.9
2020-Jul-05 21:20 200 1 gusting 11 13.9
2020-Jul-05 21:15 141 2 gusting 11 13.9
2020-Jul-05 21:10 155 3 gusting 9 14.4
2020-Jul-05 21:05 150 0 gusting 7 14.4
2020-Jul-05 21:00 153 3 gusting 8 14.4
2020-Jul-05 20:55 146 2 gusting 8 15.0
2020-Jul-05 20:50 165 1 gusting 6 15.0
2020-Jul-05 20:45 120 3 gusting 8 15.0
2020-Jul-05 20:40 128 2 gusting 9 15.0
2020-Jul-05 20:35 264 1 gusting 9 15.6
2020-Jul-05 20:30 187 2 gusting 6 15.6
2020-Jul-05 20:25 202 0 gusting 7 15.6
2020-Jul-05 20:20 151 1 gusting 8 16.1
2020-Jul-05 20:15 232 3 gusting 13 16.1
2020-Jul-05 20:10 198 3 gusting 13 16.7
2020-Jul-05 20:05 161 0 gusting 7 16.7
2020-Jul-05 20:00 176 3 gusting 7 17.2
2020-Jul-05 19:55 184 2 gusting 6 17.2
2020-Jul-05 19:50 143 2 gusting 5 17.2
2020-Jul-05 19:45 219 0 gusting 6 17.2
2020-Jul-05 19:40 164 2 gusting 6 17.8
2020-Jul-05 19:35 261 1 gusting 6 17.8
2020-Jul-05 19:25 175 1 gusting 5 17.2
2020-Jul-05 19:20 194 2 gusting 6 17.2
2020-Jul-05 19:15 200 2 gusting 6 17.2
2020-Jul-05 19:10 164 1 gusting 7 17.2
2020-Jul-05 19:00 267 2 gusting 6 17.2
2020-Jul-05 18:55 238 17.2
2020-Jul-05 18:45 180 2 gusting 6 17.2
2020-Jul-05 18:35 215 1 gusting 6 17.8
2020-Jul-05 18:30 159 1 gusting 7 17.8
2020-Jul-05 18:25 265 2 gusting 7 17.8
2020-Jul-05 18:15 262 1 gusting 8 18.3
2020-Jul-05 18:10 202 1 gusting 7 18.3
2020-Jul-05 18:05 184 2 gusting 7 17.8
2020-Jul-05 18:00 180 2 gusting 9 17.8
2020-Jul-05 17:55 128 4 gusting 9 17.8
2020-Jul-05 17:50 172 0 gusting 6 17.8
2020-Jul-05 17:40 136 3 gusting 8 17.8
2020-Jul-05 17:35 128 1 gusting 6 17.8
2020-Jul-05 17:25 132 2 gusting 7 17.2
2020-Jul-05 17:20 117 1 gusting 7 17.2
2020-Jul-05 17:15 150 3 gusting 7 17.2
2020-Jul-05 17:10 141 0 gusting 7 17.2
2020-Jul-05 17:05 257 3 gusting 7 17.8
2020-Jul-05 16:55 169 2 gusting 7 17.8
2020-Jul-05 16:50 118 4 gusting 7 17.8
2020-Jul-05 16:45 123 2 gusting 6 17.2
2020-Jul-05 16:40 151 1 gusting 7 17.2
2020-Jul-05 16:35 140 1 gusting 7 17.2
2020-Jul-05 16:30 200 1 gusting 6 17.2
2020-Jul-05 16:21 162 1 gusting 6 17.2
2020-Jul-05 16:18 173 1 gusting 6 17.2
2020-Jul-05 16:11 234 3 gusting 7 16.7
2020-Jul-05 16:06 175 2 gusting 7 16.7
2020-Jul-05 16:02 219 2 gusting 7 16.7
2020-Jul-05 15:55 155 2 gusting 7 16.7
2020-Jul-05 15:51 224 2 gusting 7 17.2
2020-Jul-05 15:46 140 2 gusting 9 17.2
2020-Jul-05 15:41 156 2 gusting 7 16.7
2020-Jul-05 15:36 167 2 gusting 4 16.1
2020-Jul-05 15:32 211 0 gusting 6 16.1
2020-Jul-05 15:25 148 2 gusting 6 16.1
2020-Jul-05 15:20 160 1 gusting 6 16.1
2020-Jul-05 15:17 153 0 gusting 5 16.1
2020-Jul-05 15:10 128 2 gusting 6 16.1
2020-Jul-05 15:05 074 1 gusting 6 15.6
2020-Jul-05 15:01 110 2 gusting 6 15.6
2020-Jul-05 14:55 113 2 gusting 6 15.6
2020-Jul-05 14:50 180 1 gusting 6 15.0
2020-Jul-05 14:47 210 0 gusting 5 15.0
2020-Jul-05 14:40 082 1 gusting 6 15.0
2020-Jul-05 14:35 105 2 gusting 6 15.0
2020-Jul-05 14:31 129 2 gusting 6 15.0
2020-Jul-05 14:25 252 1 gusting 5 14.4
2020-Jul-05 14:20 165 14.4
2020-Jul-05 14:17 148 0 gusting 5 14.4
2020-Jul-05 14:10 245 14.4
2020-Jul-05 14:05 270 1 gusting 5 14.4
2020-Jul-05 14:01 217 0 gusting 6 14.4
2020-Jul-05 13:55 146 0 gusting 4 14.4
2020-Jul-05 13:50 165 0 gusting 5 14.4
2020-Jul-05 13:46 184 2 gusting 5 14.4
2020-Jul-05 13:40 111 0 gusting 5 14.4
2020-Jul-05 13:35 239 14.4
2020-Jul-05 13:31 151 0 gusting 6 14.4
2020-Jul-05 13:25 106 2 gusting 6 14.4
2020-Jul-05 13:20 177 2 gusting 6 14.4
2020-Jul-05 13:16 185 0 gusting 7 13.9
2020-Jul-05 13:10 113 3 gusting 7 13.9
2020-Jul-05 13:05 115 2 gusting 4 13.9
2020-Jul-05 13:00 095 13.9
2020-Jul-05 12:55 085 0 gusting 2 13.9
2020-Jul-05 12:50 084 13.9
2020-Jul-05 12:46 082 1 gusting 5 13.9
2020-Jul-05 12:40 111 1 gusting 5 13.9
2020-Jul-05 12:35 141 1 gusting 6 13.9
2020-Jul-05 12:31 128 1 gusting 6 13.9
2020-Jul-05 12:25 109 1 gusting 7 13.9
2020-Jul-05 12:20 079 1 gusting 7 13.9
2020-Jul-05 12:16 153 2 gusting 7 13.3
2020-Jul-05 12:10 157 1 gusting 5 13.3
2020-Jul-05 12:05 151 0 gusting 4 12.8
2020-Jul-05 12:00 189 0 gusting 3 12.8
2020-Jul-05 11:55 127 0 gusting 5 12.8
2020-Jul-05 11:50 124 0 gusting 5 13.3
2020-Jul-05 11:46 158 1 gusting 6 13.3
2020-Jul-05 11:35 105 2 gusting 4 13.3
2020-Jul-05 11:30 067 1 gusting 5 12.8
2020-Jul-05 11:25 109 0 gusting 3 12.2
2020-Jul-05 11:20 092 1 gusting 5 12.2
2020-Jul-05 11:15 076 2 gusting 5 12.2
2020-Jul-05 11:10 144 12.2
2020-Jul-05 11:05 143 11.7
2020-Jul-05 11:00 143 0 gusting 3 11.7
2020-Jul-05 10:55 143 0 gusting 3 11.7
2020-Jul-05 10:50 081 0 gusting 3 11.7
2020-Jul-05 10:46 216 11.1
2020-Jul-05 10:40 252 10.6
2020-Jul-05 10:35 252 10.6
2020-Jul-05 10:31 252 10.6
2020-Jul-05 10:25 252 10.6
2020-Jul-05 10:20 252 10.6
2020-Jul-05 10:15 252 10.6
2020-Jul-05 10:10 252 0 gusting 2 10.6
2020-Jul-05 10:05 186 10.0
2020-Jul-05 10:00 186 10.0
2020-Jul-05 09:55 186 10.0
2020-Jul-05 09:50 186 10.0
2020-Jul-05 09:45 186 10.0
2020-Jul-05 09:40 186 10.0
2020-Jul-05 09:35 186 10.0
2020-Jul-05 09:30 186 10.0
2020-Jul-05 09:25 186 10.0
2020-Jul-05 09:20 186 10.0
2020-Jul-05 09:10 186 10.0
2020-Jul-05 09:05 186 10.0
2020-Jul-05 08:55 162 10.0
2020-Jul-05 08:50 162 10.0
2020-Jul-05 08:40 161 10.0
2020-Jul-05 08:35 158 0 gusting 2 10.0
2020-Jul-05 08:30 157 10.0
2020-Jul-05 08:25 144 10.0
2020-Jul-05 08:20 144 10.0
2020-Jul-05 08:15 144 10.0
2020-Jul-05 08:10 144 10.0
2020-Jul-05 08:05 144 10.0
2020-Jul-05 08:00 144 10.0
2020-Jul-05 07:55 155 0 gusting 4 10.0
2020-Jul-05 07:50 136 0 gusting 2 10.0
2020-Jul-05 07:40 135 10.0
2020-Jul-05 07:32 135 10.0
2020-Jul-05 07:25 135 10.0
2020-Jul-05 07:21 135 10.0
2020-Jul-05 07:16 135 10.0
2020-Jul-05 07:11 135 10.0
2020-Jul-05 07:05 135 10.0
2020-Jul-05 07:02 135 10.0
2020-Jul-05 06:56 135 10.0
2020-Jul-05 06:50 135 10.0
2020-Jul-05 06:46 135 10.0
2020-Jul-05 06:41 135 10.0
2020-Jul-05 06:35 135 10.0
2020-Jul-05 06:31 135 10.0
2020-Jul-05 06:25 135 10.0
2020-Jul-05 06:20 135 0 gusting 2 10.0
2020-Jul-05 06:16 155 10.0
2020-Jul-05 06:11 155 0 gusting 1 10.0
2020-Jul-05 06:05 155 10.0
2020-Jul-05 06:01 155 0 gusting 2 10.0
2020-Jul-05 05:56 155 10.6
2020-Jul-05 05:50 155 10.6
2020-Jul-05 05:47 155 10.6
2020-Jul-05 05:41 155 10.6
2020-Jul-05 05:35 155 10.6
2020-Jul-05 05:31 155 10.6
2020-Jul-05 05:25 155 10.6
2020-Jul-05 05:21 155 10.6
2020-Jul-05 05:16 155 10.6
2020-Jul-05 05:10 069 10.6
2020-Jul-05 05:05 072 0 gusting 3 10.6
2020-Jul-05 05:01 091 10.6
2020-Jul-05 04:56 091 10.6
2020-Jul-05 04:50 091 10.6
2020-Jul-05 04:47 080 0 gusting 2 10.6
2020-Jul-05 04:40 026 10.6
2020-Jul-05 04:35 025 10.6
2020-Jul-05 04:31 089 10.6
2020-Jul-05 04:25 089 10.6
2020-Jul-05 04:20 089 10.6
2020-Jul-05 04:16 089 10.6
2020-Jul-05 04:10 089 10.6
2020-Jul-05 04:05 089 10.6
2020-Jul-05 04:01 089 10.6
2020-Jul-05 03:55 089 10.6
2020-Jul-05 03:50 089 10.6
2020-Jul-05 03:48 142 10.6
2020-Jul-05 03:40 099 0 gusting 3 10.6
2020-Jul-05 03:35 101 10.6
2020-Jul-05 03:31 101 10.6
2020-Jul-05 03:25 101 10.6
2020-Jul-05 03:21 101 10.6
2020-Jul-05 03:16 101 10.6
2020-Jul-05 03:10 103 10.6
2020-Jul-05 03:05 103 10.6
2020-Jul-05 03:01 103 10.6
2020-Jul-05 02:55 144 10.6
2020-Jul-05 02:50 149 11.1
2020-Jul-05 02:46 149 11.1
2020-Jul-05 02:40 149 11.1
2020-Jul-05 02:35 149 11.1
2020-Jul-05 02:31 149 11.1
2020-Jul-05 02:25 149 11.1
2020-Jul-05 02:20 149 11.1
2020-Jul-05 02:16 082 11.1
2020-Jul-05 02:10 082 11.1
2020-Jul-05 02:05 082 11.1
2020-Jul-05 02:01 082 11.1
2020-Jul-05 01:56 082 11.1
2020-Jul-05 01:50 082 11.1
2020-Jul-05 01:45 082 11.1
2020-Jul-05 01:40 046 11.1
2020-Jul-05 01:35 046 11.1
2020-Jul-05 01:30 167 0 gusting 2 11.1
2020-Jul-05 01:25 167 11.1
2020-Jul-05 01:20 167 11.1
2020-Jul-05 01:05 167 11.1
2020-Jul-05 01:00 167 11.1
2020-Jul-05 00:55 005 11.1
2020-Jul-05 00:50 125 11.1
2020-Jul-05 00:45 125 11.1
2020-Jul-05 00:40 148 0 gusting 3 11.7
2020-Jul-05 00:35 078 11.7
2020-Jul-05 00:30 103 11.7
2020-Jul-05 00:26 114 0 gusting 3 11.7
2020-Jul-05 00:20 048 0 gusting 6 11.7
2020-Jul-05 00:15 061 11.7
2020-Jul-05 00:10 086 0 gusting 5 11.7
2020-Jul-05 00:05 081 0 gusting 3 11.7
2020-Jul-05 00:00 134 0 gusting 5 11.7
2020-Jul-04 23:55 148 2 gusting 4 11.7
2020-Jul-04 23:51 049 0 gusting 5 11.7
2020-Jul-04 23:46 134 1 gusting 5 11.7
2020-Jul-04 23:40 069 1 gusting 5 12.2
2020-Jul-04 23:35 107 12.2
2020-Jul-04 23:30 153 12.2
2020-Jul-04 23:25 103 0 gusting 3 12.2
2020-Jul-04 23:20 160 1 gusting 6 12.2
2020-Jul-04 23:15 126 1 gusting 6 12.2
2020-Jul-04 23:10 081 1 gusting 6 12.2
2020-Jul-04 23:05 140 1 gusting 6 12.2
2020-Jul-04 23:00 130 1 gusting 5 12.8
2020-Jul-04 22:55 107 0 gusting 9 12.8
2020-Jul-04 22:50 080 1 gusting 6 12.8
2020-Jul-04 22:45 082 1 gusting 5 12.8
2020-Jul-04 22:40 113 0 gusting 5 12.8
2020-Jul-04 22:35 073 0 gusting 5 12.8
2020-Jul-04 22:30 206 1 gusting 4 12.8
2020-Jul-04 22:25 138 12.8
2020-Jul-04 22:20 130 0 gusting 3 13.3
2020-Jul-04 22:15 161 1 gusting 6 13.3
2020-Jul-04 22:10 120 2 gusting 6 13.3
2020-Jul-04 22:05 116 1 gusting 6 13.3
2020-Jul-04 22:00 132 2 gusting 6 13.3
2020-Jul-04 21:55 149 0 gusting 4 13.3
2020-Jul-04 21:50 066 1 gusting 5 13.3
2020-Jul-04 21:45 124 1 gusting 5 13.9
2020-Jul-04 21:40 150 1 gusting 5 13.9
2020-Jul-04 21:35 114 2 gusting 5 13.9
2020-Jul-04 21:31 162 0 gusting 5 13.9
2020-Jul-04 21:25 144 0 gusting 4 13.9
2020-Jul-04 21:20 091 1 gusting 5 13.9
2020-Jul-04 21:15 109 1 gusting 5 13.9
2020-Jul-04 21:10 126 0 gusting 7 13.9
2020-Jul-04 21:05 120 1 gusting 7 13.9
2020-Jul-04 21:00 125 1 gusting 6 13.9
2020-Jul-04 20:55 074 2 gusting 6 13.9
2020-Jul-04 20:50 083 0 gusting 5 14.4
2020-Jul-04 20:45 131 1 gusting 5 14.4
2020-Jul-04 20:40 075 1 gusting 6 14.4
2020-Jul-04 20:35 135 1 gusting 6 14.4
2020-Jul-04 20:31 140 0 gusting 4 14.4
2020-Jul-04 20:25 144 14.4
2020-Jul-04 20:20 122 0 gusting 5 14.4
2020-Jul-04 20:16 150 1 gusting 6 14.4
2020-Jul-04 20:10 119 1 gusting 6 14.4
2020-Jul-04 20:05 102 2 gusting 6 14.4
2020-Jul-04 20:00 022 0 gusting 6 14.4
2020-Jul-04 19:55 124 1 gusting 7 14.4
2020-Jul-04 19:50 134 0 gusting 7 14.4
2020-Jul-04 19:46 183 1 gusting 6 14.4
2020-Jul-04 19:40 258 2 gusting 6 14.4
2020-Jul-04 19:35 134 2 gusting 7 15.0
2020-Jul-04 19:30 139 3 gusting 7 15.0
2020-Jul-04 19:25 204 1 gusting 7 15.0
2020-Jul-04 19:20 095 4 gusting 7 15.0
2020-Jul-04 19:10 069 1 gusting 8 15.6
2020-Jul-04 19:00 135 2 gusting 7 15.6
2020-Jul-04 18:55 155 2 gusting 7 15.0
2020-Jul-04 18:50 099 3 gusting 6 15.6
2020-Jul-04 18:45 142 2 gusting 6 15.6
2020-Jul-04 18:40 097 15.6
2020-Jul-04 18:31 160 2 gusting 7 15.0
2020-Jul-04 18:25 153 1 gusting 10 15.0
2020-Jul-04 18:20 204 3 gusting 10 15.0
2020-Jul-04 18:15 104 3 gusting 7 15.6
2020-Jul-04 18:10 205 2 gusting 6 15.6
2020-Jul-04 18:05 145 15.6
2020-Jul-04 17:55 125 3 gusting 8 15.6
2020-Jul-04 17:50 150 2 gusting 8 15.6
2020-Jul-04 17:40 136 2 gusting 7 15.6
2020-Jul-04 17:35 117 1 gusting 7 15.6
2020-Jul-04 17:25 195 2 gusting 12 15.6
2020-Jul-04 17:15 192 2 gusting 10 16.1
2020-Jul-04 17:10 131 2 gusting 9 16.7
2020-Jul-04 17:05 161 1 gusting 8 16.1
2020-Jul-04 16:55 157 2 gusting 8 16.1
2020-Jul-04 16:50 192 5 gusting 8 16.1
2020-Jul-04 16:45 149 3 gusting 7 16.1
2020-Jul-04 16:35 115 1 gusting 6 16.1
2020-Jul-04 16:30 109 1 gusting 8 16.1
2020-Jul-04 16:25 112 3 gusting 8 16.1
2020-Jul-04 16:20 111 2 gusting 8 15.6
2020-Jul-04 16:15 218 2 gusting 8 15.6
2020-Jul-04 16:10 113 3 gusting 7 15.6
2020-Jul-04 16:00 111 3 gusting 7 15.6
2020-Jul-04 15:55 129 2 gusting 8 15.6
2020-Jul-04 15:50 071 1 gusting 10 16.1
2020-Jul-04 15:45 036 5 gusting 10 16.1
2020-Jul-04 15:40 148 3 gusting 10 16.1
2020-Jul-04 15:35 176 2 gusting 6 15.6
2020-Jul-04 15:30 109 2 gusting 8 15.6
2020-Jul-04 15:20 182 3 gusting 10 16.1
2020-Jul-04 15:11 123 1 gusting 8 15.6
2020-Jul-04 15:05 158 2 gusting 8 15.0
2020-Jul-04 15:02 124 2 gusting 8 15.0
2020-Jul-04 14:55 161 2 gusting 9 15.0
2020-Jul-04 14:51 209 3 gusting 9 15.0
2020-Jul-04 14:47 091 2 gusting 8 15.6
2020-Jul-04 14:36 074 2 gusting 8 15.0
2020-Jul-04 14:31 105 2 gusting 8 15.6
2020-Jul-04 14:25 055 3 gusting 8 15.6
2020-Jul-04 14:21 201 4 gusting 9 15.6
2020-Jul-04 14:17 084 5 gusting 9 15.6
2020-Jul-04 14:10 119 2 gusting 6 16.1
2020-Jul-04 14:05 159 0 gusting 6 16.1
2020-Jul-04 14:03 184 1 gusting 6 15.6
2020-Jul-04 13:56 104 3 gusting 8 15.0
2020-Jul-04 13:51 082 3 gusting 8 15.0
2020-Jul-04 13:46 081 2 gusting 7 14.4
2020-Jul-04 13:40 100 1 gusting 7 14.4
2020-Jul-04 13:36 012 2 gusting 8 14.4
2020-Jul-04 13:33 110 3 gusting 8 14.4
2020-Jul-04 13:26 056 2 gusting 6 15.0
2020-Jul-04 13:21 084 0 gusting 7 15.6
2020-Jul-04 13:16 125 1 gusting 8 15.6
2020-Jul-04 13:10 190 4 gusting 8 15.6
2020-Jul-04 13:06 169 2 gusting 6 15.0
2020-Jul-04 13:01 220 2 gusting 8 14.4
2020-Jul-04 12:55 136 1 gusting 6 14.4
2020-Jul-04 12:50 097 1 gusting 6 14.4
2020-Jul-04 12:46 061 2 gusting 6 14.4
2020-Jul-04 12:40 173 1 gusting 6 14.4
2020-Jul-04 12:35 130 1 gusting 7 14.4
2020-Jul-04 12:31 117 3 gusting 8 14.4
2020-Jul-04 12:25 117 0 gusting 6 14.4
2020-Jul-04 12:20 114 3 gusting 6 14.4
2020-Jul-04 12:16 127 0 gusting 3 13.9
2020-Jul-04 12:10 154 13.9
2020-Jul-04 12:05 166 1 gusting 5 13.9
2020-Jul-04 12:00 131 1 gusting 5 13.3
2020-Jul-04 11:55 165 13.3
2020-Jul-04 11:50 157 0 gusting 2 13.3
2020-Jul-04 11:46 091 13.3
2020-Jul-04 11:40 161 1 gusting 5 13.3
2020-Jul-04 11:35 137 0 gusting 6 13.3
2020-Jul-04 11:31 090 2 gusting 6 12.8
2020-Jul-04 11:25 125 2 gusting 5 12.8
2020-Jul-04 11:20 178 0 gusting 4 12.8
2020-Jul-04 11:16 131 2 gusting 6 12.8
2020-Jul-04 11:12 154 3 gusting 6 13.3
2020-Jul-04 11:06 125 2 gusting 5 13.3
2020-Jul-04 11:03 118 1 gusting 6 13.3
2020-Jul-04 10:55 130 2 gusting 6 13.3
2020-Jul-04 10:50 145 1 gusting 6 13.3
2020-Jul-04 10:46 143 1 gusting 6 13.3
2020-Jul-04 10:40 119 3 gusting 8 13.3
2020-Jul-04 10:35 103 1 gusting 8 13.3
2020-Jul-04 10:31 200 0 gusting 3 12.8
2020-Jul-04 10:25 082 0 gusting 3 12.2
2020-Jul-04 10:20 082 11.7
2020-Jul-04 10:15 067 11.7
2020-Jul-04 10:10 149 11.7
2020-Jul-04 10:05 149 11.7
2020-Jul-04 10:00 149 11.7
2020-Jul-04 09:55 149 11.7
2020-Jul-04 09:50 149 11.7
2020-Jul-04 09:46 149 11.7
2020-Jul-04 09:40 149 11.7
2020-Jul-04 09:35 149 11.1
2020-Jul-04 09:30 149 11.1
2020-Jul-04 09:25 149 11.1
2020-Jul-04 09:20 149 11.1
2020-Jul-04 09:15 149 11.1
2020-Jul-04 09:10 149 11.1
2020-Jul-04 09:05 149 11.1
2020-Jul-04 09:00 149 11.1
2020-Jul-04 08:55 136 11.1
2020-Jul-04 08:50 134 0 gusting 1 11.1
2020-Jul-04 08:46 144 11.1
2020-Jul-04 08:40 144 11.1
2020-Jul-04 08:35 144 11.1
2020-Jul-04 08:30 144 11.1
2020-Jul-04 08:25 144 11.1
2020-Jul-04 08:20 144 11.1
2020-Jul-04 08:15 180 1 gusting 4 11.1
2020-Jul-04 08:10 151 11.1
2020-Jul-04 08:05 151 11.1
2020-Jul-04 08:00 151 11.1
2020-Jul-04 07:55 186 0 gusting 6 11.1
2020-Jul-04 07:50 082 11.1
2020-Jul-04 07:45 138 0 gusting 5 11.1
2020-Jul-04 07:40 146 1 gusting 5 11.1
2020-Jul-04 07:35 178 11.1
2020-Jul-04 07:30 168 0 gusting 2 11.1
2020-Jul-04 07:25 141 11.1
2020-Jul-04 07:20 141 11.1
2020-Jul-04 07:15 141 11.7
2020-Jul-04 07:10 141 11.7
2020-Jul-04 07:05 141 11.7
2020-Jul-04 07:00 176 11.1
2020-Jul-04 06:55 111 0 gusting 4 11.7
2020-Jul-04 06:50 183 1 gusting 4 11.7
2020-Jul-04 06:45 115 1 gusting 5 11.7
2020-Jul-04 06:40 134 0 gusting 5 11.7
2020-Jul-04 06:35 132 1 gusting 6 11.7
2020-Jul-04 06:30 116 1 gusting 6 11.7
2020-Jul-04 06:25 122 0 gusting 4 11.7
2020-Jul-04 06:15 165 0 gusting 8 11.7
2020-Jul-04 06:10 164 1 gusting 8 11.7
2020-Jul-04 06:01 143 1 gusting 6 11.7
2020-Jul-04 05:55 140 0 gusting 5 11.7
2020-Jul-04 05:45 146 1 gusting 5 11.7
2020-Jul-04 05:40 157 11.7
2020-Jul-04 05:35 182 11.7
2020-Jul-04 05:25 125 0 gusting 6 11.7
2020-Jul-04 05:20 100 2 gusting 7 11.7
2020-Jul-04 05:15 164 3 gusting 7 11.7
2020-Jul-04 05:10 193 1 gusting 6 11.7
2020-Jul-04 05:05 175 3 gusting 6 11.7
2020-Jul-04 05:00 186 2 gusting 6 11.7